TimeCDT,TemperatureF,Dew PointF,Humidity,Sea Level PressureIn,VisibilityMPH,Wind Direction,Wind SpeedMPH,Gust SpeedMPH,PrecipitationIn,Events,Conditions,WindDirDegrees,DateUTC
12:51 AM,51.1,37.9,61,29.96,10.0,South,6.9,-,N/A,,Scattered Clouds,170,2013-05-14 05:51:00
1:51 AM,53.1,37.0,55,29.92,10.0,South,8.1,-,N/A,,Partly Cloudy,180,2013-05-14 06:51:00
2:51 AM,55.9,37.0,49,29.90,10.0,SSW,13.8,-,N/A,,Partly Cloudy,200,2013-05-14 07:51:00
3:51 AM,57.0,37.9,49,29.87,10.0,SSW,13.8,-,N/A,,Scattered Clouds,200,2013-05-14 08:51:00
4:51 AM,57.9,37.0,46,29.84,10.0,SSW,17.3,-,N/A,,Partly Cloudy,200,2013-05-14 09:51:00
5:51 AM,57.9,39.0,49,29.82,10.0,SSW,11.5,23.0,N/A,,Scattered Clouds,200,2013-05-14 10:51:00
6:51 AM,59.0,43.0,55,29.80,10.0,SW,16.1,27.6,N/A,,Partly Cloudy,220,2013-05-14 11:51:00
7:51 AM,62.1,45.0,53,29.78,10.0,SW,19.6,28.8,N/A,,Partly Cloudy,230,2013-05-14 12:51:00
8:51 AM,64.0,48.0,56,29.78,10.0,SW,15.0,21.9,N/A,,Partly Cloudy,230,2013-05-14 13:51:00
9:51 AM,69.1,51.1,53,29.76,10.0,WSW,16.1,24.2,N/A,,Clear,240,2013-05-14 14:51:00
10:51 AM,72.0,52.0,49,29.75,10.0,SW,16.1,21.9,N/A,,Clear,230,2013-05-14 15:51:00
11:51 AM,77.0,55.0,47,29.75,10.0,WSW,10.4,19.6,N/A,,Clear,250,2013-05-14 16:51:00
12:51 PM,80.6,55.4,42,29.75,10.0,WSW,11.5,17.3,N/A,,Clear,250,2013-05-14 17:51:00
1:51 PM,84.0,55.9,38,29.73,10.0,WSW,10.4,17.3,N/A,,Partly Cloudy,240,2013-05-14 18:51:00
2:51 PM,88.0,50.0,27,29.72,10.0,WNW,9.2,16.1,N/A,,Partly Cloudy,300,2013-05-14 19:51:00
3:51 PM,89.1,46.0,22,29.72,10.0,NW,9.2,-,N/A,,Scattered Clouds,320,2013-05-14 20:51:00
4:51 PM,90.0,43.0,19,29.70,10.0,Calm,Calm,-,N/A,,Scattered Clouds,0,2013-05-14 21:51:00
5:15 PM,82.4,53.6,37,29.71,10.0,East,12.7,-,N/A,,Scattered Clouds,80,2013-05-14 22:15:00
5:51 PM,81.0,54.0,39,29.68,10.0,East,13.8,-,N/A,,Partly Cloudy,100,2013-05-14 22:51:00
6:51 PM,77.0,55.9,48,29.65,10.0,SE,12.7,-,N/A,,Partly Cloudy,140,2013-05-14 23:51:00
7:51 PM,71.1,55.0,57,29.64,10.0,SSE,6.9,-,N/A,,Scattered Clouds,150,2013-05-15 00:51:00
8:51 PM,70.0,55.0,59,29.65,10.0,SSE,4.6,-,N/A,,Scattered Clouds,160,2013-05-15 01:51:00
9:51 PM,72.0,55.9,57,29.70,10.0,North,8.1,-,N/A,,Mostly Cloudy,350,2013-05-15 02:51:00
10:51 PM,73.0,55.9,55,29.68,10.0,SW,4.6,-,N/A,,Mostly Cloudy,220,2013-05-15 03:51:00
11:51 PM,79.0,57.9,48,29.62,10.0,SSW,17.3,23.0,N/A,,Mostly Cloudy,210,2013-05-15 04:51:00